TITAN 3C TRANSTAGE R/B, 2770

Orbit data source: Space-Track

TITAN 3C TRANSTAGE R/B, 2770 is space debris in HEO originally from a launch on Fri, 28 Apr 1967 UTC launched from the Air Force Eastern Test Range (AFETR). Debris objects in space refer to the collection of defunct objects orbiting the Earth. Examples of debris include non-operational satellites, rocket bodies, and fragments generated from explosions, collisions, or faulty payload assembly.

Loading next visibility...
Identifier
2770, 1967-040F
Orbit
HEO
Country
Flag of USUS
Related business
Manufacturer
Martin Marietta
Mission
Spacecraft
Bus & Motor
TRANSTAGE, Unknown motor
Mass
3,103 kg wet, 3,103 kg dry
Launch date (UTC)
1967-04-28 (59 years ago)
Launch vehicle
Unknown
Launch site
Air Force Eastern Test Range (AFETR)
Object type
Payload
Rocket body
Debris
Shape & HBR
CYL + 2 NOZZLE, 1.1 m
Radar Cross Section
Large (>1 m²)

Expand to show TLE details & history
Last TLE update: in 1 day

TLE from in 1 day
0 TITAN 3C TRANSTAGE R/B
1  2770U 67040F   26255.66389167 -.00000820  00000-0  00000+0 0  9999
2  2770  14.4584 204.7984 8023311   0.5458 358.9777  0.50945863 23740
Epoch: 2026-09-12T15:56Z
TLE epoch observation values (Epoch: 2026-09-12T15:56:00.240Z)
Latitude
-0.3155°
Longitude
-27.18505°
Altitude
6,630.838 km
Speed
7.434 km/s
True Right ascension
13h 33m 56s
True Declination
0° 18' 52"
Sunlit
Object was in daylight at epoch
Visualization orbit readout
Latitude
Unknown
Longitude
Unknown
Altitude
Unknown
Speed
Unknown
Apparent Right ascension
Unknown
Apparent Declination
Unknown
Sunlit
N/A
Visualization observer readout
Local Sidereal Time
07:33:12
Azimuth
Unknown
Elevation
Unknown
Doppler factor
Unknown
Orbital elements
Apogee altitude
112,979.257 km
Perigee altitude
6,712.268 km
Semi-major axis
66,223.9 km
Eccentricity
0.80233
Inclination
14.4584°
RAAN
204.7984°
Arg. of periapsis
0.5458°
True anomaly
344.55182°
Mean anomaly
358.9777°
Eccentric anomaly
354.85625°
Mean motion
0.12736 °/min
Orbital period
2,826.71 mins
BSTAR
0
Loading maneuver chart data...
Computing Atmospheric mass density...
Loading historical data...
Loading historical data...
Loading historical data...
Loading historical data...
Loading historical data...
Loading historical data...
Loading historical data...

Documentation

Showing up to 5 results
|